Voltar ao catálogo

COSMOS 2251 DEB

AtivoLEO
NORAD 33932·DEBRIS·🇷🇺 Russia

Lançado Jun 16, 1993 de Plesetsk Cosmodrome

Loading…

Próximas Passagens (próximas 24 horas)

TLE

AtualizadoSource: Space-Track

Época: Sep 14, 2026, 10:37 UTC

1 33932U 93036EM  26257.44299074  .00000712  00000-0  23555-3 0  9995
2 33932  74.0341 167.1220 0036679 180.7533 179.3573 14.39385904919648

Acompanhe COSMOS 2251 DEB em tempo real com AllMySat

Download on the App Store